{"data":{"norad_id":47287,"intl_designator":"2020-100AF","name":"ONEWEB-0141","alt_names":[],"object_type":"PAYLOAD","status":"ACTIVE","operator":null,"country":"UK","launch_date":"2020-12-18","launch_site_code":"VOSTO","launch_vehicle":null,"mission":null,"orbit_class":"UNKNOWN","rcs_meters":null,"size_class":null,"mass_kg":null,"dimensions":null,"purposes":["comms"],"wikipedia_slug":null,"has_3d_model":false,"image_url":null,"decayed_at":null,"tle_current":{"epoch":"2026-09-19T22:19:56.500320Z","epoch_age_seconds":67522,"freshness":"FRESH","line1":"1 47287U 20100AF  26262.93051505 -.00000191  00000+0 -56656-3 0  9990","line2":"2 47287  87.8985 331.8420 0001918 107.7797 252.3540 13.12443629277106","mean_motion":13.12443629,"eccentricity":0.0001918,"inclination_deg":87.8985,"raan_deg":331.842,"arg_perigee_deg":107.7797,"mean_anomaly_deg":252.354,"bstar":-0.00056656,"rev_number":27710,"period_min":109.71899807211,"perigee_km":1212.2647470657,"apogee_km":1215.1769837429,"semimajor_km":7591.8578654043,"source":"CELESTRAK","updated_at":"2026-09-20T09:00:44.581939Z"}}}